Theta_e
339 338 342 349 351 352 352 352 353 354 353 353 352 352 352 352 352 351 351 351 350 349 349 349 349 349 348 348 347 348 348 350 350 349 350 350 350 350 350 350 350 350 350 350 350 351 351 350 351 349 347 346 346 346 345 346 346 346 346 345 347 347 348 348 348 349 350 351 351 351 350 351 351 352 352 352 352 351 350 350 349 348 347 350 353
339 339 343 348 351 352 352 352 353 353 353 353 352 353 352 352 351 351 351 350 350 349 349 349 349 348 348 348 348 348 349 349 349 349 349 349 349 349 349 349 349 349 349 350 350 351 350 348 349 349 347 345 344 343 343 343 344 344 344 344 345 345 345 346 346 347 348 349 350 351 350 350 350 351 351 351 351 351 350 350 349 346 346 351 352
341 340 343 347 350 351 352 352 353 353 353 353 352 353 352 352 351 351 351 350 349 349 349 349 349 349 349 350 349 349 349 348 349 348 348 348 348 347 348 348 347 348 349 349 350 350 348 349 349 348 345 344 343 342 342 342 342 342 342 343 343 343 344 344 344 344 345 347 348 348 348 349 349 350 351 350 349 349 348 349 349 348 347 350 351
339 339 343 346 347 349 351 352 352 353 353 353 353 352 352 352 351 350 350 350 349 349 349 349 349 349 349 349 349 349 348 348 348 348 347 347 347 347 347 347 347 348 348 350 349 349 348 348 348 346 344 343 342 341 341 341 341 340 341 340 340 341 342 342 342 343 343 343 342 343 344 342 346 349 350 351 350 349 347 347 348 348 348 349 350
339 339 342 345 346 347 351 351 353 353 353 353 352 352 351 351 351 350 349 349 350 349 349 349 349 349 349 349 349 348 348 348 348 347 347 347 347 347 347 346 347 348 348 349 348 348 347 349 347 345 343 341 340 340 340 339 339 339 339 339 339 338 339 339 341 340 340 340 340 340 338 342 343 347 349 349 349 348 347 346 346 347 347 347 348
338 339 342 344 345 346 349 350 353 353 353 352 352 352 351 351 350 350 350 350 350 349 349 349 349 349 349 349 349 349 348 348 348 347 347 347 347 347 347 347 347 347 347 347 348 347 347 348 346 344 342 340 339 338 338 338 337 336 336 336 337 337 337 337 339 338 340 338 336 333 338 341 343 345 347 347 347 347 346 347 346 346 346 346 346
339 340 342 344 345 345 347 350 352 352 352 352 352 351 351 351 350 350 350 350 349 349 349 349 349 349 349 349 349 349 348 348 348 347 347 347 347 346 347 347 346 347 347 347 347 347 347 346 344 344 342 339 338 337 337 336 335 334 333 333 334 334 335 336 337 338 337 333 332 335 339 341 340 342 347 347 347 346 346 346 346 346 346 346 345
340 340 341 343 344 344 346 350 351 352 351 352 352 352 351 350 350 350 350 350 349 349 349 349 349 349 349 349 349 348 348 348 348 348 347 346 347 346 346 346 346 346 347 346 347 346 345 344 343 342 341 338 337 337 336 335 334 332 331 330 330 331 333 334 336 337 335 329 330 333 338 340 341 341 347 347 346 348 347 347 347 347 346 346 344
339 339 341 343 343 343 345 348 352 351 351 352 352 351 351 350 350 350 350 350 350 349 349 349 348 349 349 349 349 348 348 348 348 347 346 346 346 346 346 346 346 345 346 346 345 345 344 342 342 341 339 338 335 335 334 333 332 331 329 328 328 328 331 332 333 332 328 330 331 331 339 341 341 341 347 347 346 346 346 345 346 345 344 343 342
339 339 340 341 342 341 345 347 351 351 351 351 351 351 350 350 350 350 350 350 350 349 349 349 349 349 350 349 349 348 348 347 347 346 345 346 346 346 346 346 346 345 344 343 343 343 342 341 340 340 338 336 334 332 331 330 329 328 326 325 325 327 329 330 332 327 326 329 331 336 340 343 340 341 345 346 346 346 344 343 344 343 342 341 342
338 338 339 340 341 341 345 349 350 350 351 351 351 351 351 350 350 350 350 349 349 349 349 349 349 349 349 349 349 348 348 348 347 346 345 346 345 345 345 344 343 342 341 341 340 341 340 339 338 337 337 335 332 330 329 328 326 325 324 323 323 325 328 330 328 322 325 327 328 333 343 343 338 336 345 345 345 343 343 342 343 342 342 341 341
334 337 338 339 339 340 344 347 349 351 350 351 351 351 350 350 350 349 350 349 349 349 349 349 349 349 349 349 348 348 347 348 346 345 346 345 344 344 343 342 342 340 340 339 338 338 338 337 336 336 335 333 330 328 326 325 323 322 321 321 323 326 326 328 322 321 323 325 327 329 328 330 335 341 344 344 343 342 341 341 341 341 341 341 340
332 333 338 337 340 340 343 347 347 349 350 351 351 351 351 350 350 349 349 349 349 349 348 349 350 350 350 349 348 348 347 347 346 345 346 345 343 343 343 342 341 340 339 338 336 337 336 335 335 333 331 330 328 327 325 323 323 322 321 322 323 324 327 326 319 320 321 323 325 326 327 327 330 342 341 341 341 341 341 340 340 340 339 339 338
331 331 337 338 339 338 340 342 344 347 349 350 351 351 351 350 350 349 349 350 349 349 349 349 349 349 349 349 348 348 347 348 346 345 344 343 342 342 341 340 340 339 338 337 336 335 334 333 335 332 331 328 326 325 324 323 321 320 320 322 322 323 326 319 324 316 319 321 324 324 324 328 331 340 339 340 340 338 338 337 337 337 336 337 336
331 330 336 338 337 339 337 340 342 344 346 348 349 350 351 351 350 350 349 350 349 349 349 349 350 349 350 349 348 348 348 347 345 345 344 343 342 341 340 339 339 339 338 337 335 333 332 331 331 332 329 326 324 323 322 321 321 319 319 320 322 322 323 312 315 315 319 322 321 323 322 325 337 335 336 337 337 336 336 336 335 335 335 335 335
330 332 336 336 336 337 338 337 339 339 343 345 346 347 348 349 349 349 349 349 349 349 349 349 350 349 349 349 348 347 347 346 345 344 344 343 342 340 340 340 337 335 334 334 331 331 330 330 330 330 327 325 324 322 320 320 319 318 318 319 320 322 320 317 313 315 317 319 320 321 321 324 335 334 333 333 333 333 333 333 333 333 333 333 333
330 333 336 335 335 336 337 338 338 335 337 338 341 342 345 347 347 348 348 348 348 348 349 349 349 349 349 349 348 346 346 346 345 345 344 343 341 339 338 334 333 333 332 331 331 331 330 330 331 328 326 324 323 322 320 319 318 318 317 318 318 319 319 316 313 312 315 319 320 319 320 324 332 332 332 332 331 331 331 332 332 332 332 331 331
328 332 334 335 335 336 337 337 338 337 340 336 335 339 342 345 345 345 345 346 346 347 347 347 347 347 346 345 344 344 344 344 344 344 344 344 340 337 338 334 333 332 332 331 331 330 329 330 330 327 326 324 323 321 320 317 316 315 315 316 316 318 317 315 309 313 316 319 316 319 320 330 330 330 331 330 330 330 329 329 330 330 330 329 328
326 329 332 335 335 336 337 336 336 337 338 338 339 339 336 340 342 342 343 344 344 344 345 344 343 343 343 341 340 338 336 337 339 340 341 338 334 332 335 336 333 332 332 331 330 330 329 330 328 327 325 324 322 320 318 316 314 313 314 314 313 313 313 308 306 311 314 314 315 316 321 330 329 329 329 329 329 328 328 328 328 327 326 326 326
323 326 329 331 335 335 336 336 337 337 338 338 338 339 334 333 337 339 340 341 341 342 341 339 337 336 337 336 333 332 330 332 329 331 331 334 331 327 331 334 334 332 332 331 330 330 329 329 328 327 325 323 321 319 316 314 313 311 313 313 312 309 301 301 305 310 312 313 315 315 325 328 328 329 328 327 325 324 326 328 327 325 325 325 326
324 323 327 328 330 334 335 335 336 337 337 338 338 338 337 331 333 333 334 337 338 338 338 333 329 328 330 328 325 330 329 330 328 328 324 326 323 324 329 333 334 333 333 332 330 329 329 329 327 326 324 322 319 316 314 312 311 311 312 310 309 299 300 301 306 309 310 310 313 316 326 326 327 327 327 326 326 326 327 327 326 327 327 327 327
323 324 325 328 328 330 333 334 335 336 337 338 339 339 338 332 337 336 335 335 332 331 334 337 330 335 325 327 328 326 327 326 326 325 323 323 322 322 326 332 334 333 333 332 330 329 328 327 326 325 323 320 316 302 306 313 311 311 311 310 299 298 298 301 305 307 307 307 310 319 326 326 325 324 325 325 326 326 325 327 327 326 326 326 326
318 322 324 326 328 329 329 332 333 335 336 336 338 339 338 335 336 336 335 331 332 333 335 334 333 332 329 327 325 324 325 324 324 323 322 320 322 321 326 329 331 329 331 332 331 329 328 326 326 324 322 317 304 297 296 294 295 305 304 298 297 297 298 300 303 306 306 306 306 322 325 325 325 325 324 324 324 324 325 326 324 325 325 325 325
319 322 325 327 327 328 329 330 332 334 335 336 336 335 336 335 336 336 336 336 335 333 334 333 331 330 328 326 324 324 324 323 322 320 321 320 320 320 324 325 327 325 326 327 329 329 328 326 325 324 318 307 299 297 296 294 292 293 294 298 297 298 297 298 301 304 304 307 307 320 323 325 325 324 325 324 325 325 324 324 324 324 324 323 324
318 321 322 325 327 328 329 329 330 333 334 334 333 332 333 335 335 336 336 336 335 334 333 331 330 329 327 324 324 323 323 323 322 321 321 320 318 319 321 321 321 318 320 316 318 320 320 317 318 314 305 303 301 297 296 294 293 293 294 297 297 295 297 298 300 301 302 302 307 318 320 324 325 324 324 324 324 324 324 324 324 324 323 322 323
315 317 321 323 326 328 329 330 328 329 332 333 333 332 330 333 334 335 335 335 335 334 332 330 329 328 325 324 323 323 323 322 321 320 319 319 318 317 317 317 316 317 317 315 313 314 312 310 309 307 303 302 301 299 297 296 293 294 296 296 296 296 296 295 299 302 301 300 306 316 318 321 324 324 324 324 324 324 324 324 324 323 322 322 322
315 317 321 323 325 327 328 329 329 328 329 331 332 330 330 332 334 334 334 333 333 333 332 331 329 327 325 323 323 322 321 320 319 319 319 318 317 316 316 316 316 316 315 315 313 313 311 309 307 306 302 299 297 297 297 297 295 296 295 296 296 296 295 295 298 299 298 300 308 315 317 319 323 323 323 324 323 324 323 323 322 322 322 322 322
313 316 319 323 323 326 327 328 329 329 327 329 330 330 330 329 331 330 332 331 331 331 331 330 329 327 325 324 322 322 321 319 319 319 318 317 317 316 316 316 316 315 314 315 314 312 310 309 307 303 301 298 296 297 297 297 296 296 296 295 295 294 294 294 297 298 298 298 301 310 316 318 321 322 322 324 324 323 323 322 323 323 322 322 322
309 314 317 320 323 325 326 327 328 328 329 328 328 329 329 328 328 330 331 327 331 331 331 329 328 327 325 324 322 322 321 320 318 319 317 317 316 316 315 316 315 315 314 313 314 312 310 308 306 305 302 297 296 296 296 296 295 295 296 295 295 294 294 294 295 296 298 298 299 306 314 317 320 320 321 322 324 323 323 323 323 322 321 321 320
308 311 315 319 322 324 325 326 328 329 329 328 328 327 327 327 326 328 330 327 330 329 328 328 328 327 325 324 322 323 322 320 319 317 317 316 315 315 315 315 315 315 314 313 312 313 310 305 303 303 299 297 297 297 296 295 295 296 295 295 294 295 294 293 293 296 297 297 299 301 312 316 320 320 320 320 322 323 323 323 322 321 320 321 320
307 306 313 317 319 322 324 326 327 326 327 328 328 328 326 326 326 325 326 326 327 325 325 327 327 327 326 324 322 321 321 320 319 318 317 316 315 315 314 314 314 314 315 313 310 312 309 305 302 300 297 296 296 295 294 294 294 295 295 294 294 294 294 293 294 295 297 298 298 299 303 313 317 320 321 320 320 320 321 322 322 321 321 321 320
306 307 306 312 315 320 324 324 326 326 326 327 326 327 326 325 324 324 324 324 324 324 324 324 323 325 325 324 323 321 320 319 318 318 317 315 314 315 314 314 314 313 314 313 309 308 306 301 299 297 296 296 295 294 295 294 294 295 293 293 292 294 293 293 294 295 297 298 298 298 298 303 312 315 318 321 321 321 321 321 320 320 320 321 320
303 305 308 307 314 317 321 323 325 324 325 326 326 326 325 324 323 324 324 323 323 323 322 322 323 323 323 324 323 321 319 319 317 318 316 316 314 314 313 314 314 313 312 312 307 304 300 298 297 296 295 294 294 294 295 294 294 294 294 292 293 292 293 293 294 295 295 297 299 299 297 299 300 309 312 316 319 320 321 321 320 319 319 318 320
301 301 302 306 310 315 318 321 321 323 323 325 324 323 323 322 321 322 321 322 322 321 320 320 321 321 321 322 322 321 319 318 317 316 316 315 314 314 313 313 313 311 311 309 306 301 299 297 296 295 296 294 293 293 293 293 292 292 292 292 291 293 293 294 293 294 293 293 297 299 299 299 297 299 300 309 313 318 320 320 321 321 318 318 318
301 301 301 302 307 311 316 320 318 319 319 320 321 322 319 321 319 319 321 320 321 322 319 320 318 320 321 320 321 320 319 318 316 316 314 314 313 312 312 312 311 309 308 306 305 299 297 296 295 294 293 292 292 293 292 292 292 292 292 293 293 292 292 293 294 292 292 292 296 300 300 298 298 298 299 297 304 309 316 318 319 320 321 319 317
300 300 301 303 305 310 313 313 313 315 316 318 317 319 320 319 319 317 320 318 318 320 318 319 319 316 318 319 319 319 318 317 315 315 314 313 313 312 312 310 308 307 306 302 301 298 296 296 295 294 293 291 292 292 291 291 291 292 291 291 291 292 292 292 293 292 293 292 294 296 298 299 299 298 299 296 298 301 310 314 316 317 318 318 318
300 300 300 301 304 307 310 311 312 312 315 315 314 314 315 316 317 318 318 317 318 318 316 318 318 318 315 316 316 318 317 315 314 314 313 312 311 311 309 308 306 305 302 300 299 298 296 296 294 294 294 292 292 291 290 291 291 292 291 290 291 292 292 293 292 292 293 292 292 292 292 296 297 300 295 295 296 297 304 310 311 312 314 316 317
299 299 300 300 302 305 308 309 310 311 311 312 312 312 313 313 313 313 314 317 316 316 315 318 317 315 315 315 316 316 316 314 312 312 312 311 310 310 308 307 305 303 301 299 298 295 295 295 294 292 293 292 291 291 290 291 292 291 289 289 289 290 290 291 291 294 292 291 292 291 292 292 293 294 294 295 295 296 298 304 307 307 308 313 316
298 299 299 300 301 302 304 306 307 308 311 311 311 312 313 313 312 312 312 312 313 313 314 314 315 316 315 315 316 316 315 314 312 311 311 308 308 308 308 306 304 302 301 298 296 294 294 294 294 292 291 291 292 290 291 291 292 291 290 289 290 290 290 290 291 292 291 291 292 293 292 291 290 291 292 292 292 293 294 295 292 292 296 308 312
297 298 299 299 300 301 302 303 304 305 308 311 311 310 310 309 310 310 311 310 311 311 311 311 311 314 313 314 314 315 314 314 312 310 310 308 307 306 307 305 302 301 300 298 296 294 294 293 293 292 291 289 289 290 291 291 289 289 289 289 289 289 290 290 289 290 290 290 292 292 291 290 289 289 289 290 290 290 291 291 291 291 293 300 306
296 296 297 297 298 300 300 300 301 303 304 308 308 307 307 305 306 306 307 307 307 308 311 310 311 309 310 310 311 313 312 312 312 311 311 308 308 306 306 304 302 301 300 300 298 295 294 294 292 291 291 289 289 289 291 291 290 287 287 287 288 288 289 289 288 288 289 290 290 290 290 290 289 289 288 288 289 289 288 290 290 289 290 291 297
293 294 294 295 296 298 299 299 300 301 301 301 304 305 305 305 305 304 305 304 305 306 308 308 308 309 307 308 308 308 309 311 310 310 308 308 306 303 303 303 301 300 300 299 297 295 293 292 291 289 289 290 289 290 291 291 287 287 286 285 285 285 286 288 287 288 288 290 291 291 290 290 289 289 288 287 288 288 288 289 288 288 287 288 289
293 293 293 294 295 296 297 298 299 299 300 300 301 303 304 305 304 302 303 303 304 304 304 304 306 306 306 306 306 307 307 307 306 305 307 305 305 303 301 302 302 301 298 297 296 294 293 293 291 291 289 288 289 290 291 293 287 285 285 284 282 284 285 286 286 288 289 289 289 290 290 289 290 289 289 288 288 288 288 287 288 287 287 286 287
292 292 292 292 294 294 295 296 297 298 298 299 299 299 301 301 302 303 303 304 302 302 303 303 303 304 304 304 303 303 304 304 303 303 305 304 304 303 301 300 301 300 300 298 296 295 293 292 291 291 290 289 288 289 291 291 287 288 284 285 281 282 280 283 285 285 287 288 289 289 289 289 289 288 288 288 288 288 288 287 287 288 287 287 287
291 291 291 291 293 292 294 294 295 296 297 298 299 299 300 301 301 300 299 297 297 299 298 298 299 299 300 301 302 300 302 302 302 302 302 302 302 303 301 299 299 299 300 300 298 297 295 294 293 292 290 291 289 288 290 290 288 292 288 282 281 282 282 281 283 283 284 286 287 288 288 288 288 288 288 287 287 288 288 287 288 287 287 287 287
290 291 291 291 291 292 292 293 294 295 295 296 297 298 298 298 298 297 297 294 296 296 295 295 298 300 301 298 300 299 299 300 300 301 300 300 301 301 300 298 297 298 299 300 299 297 296 294 293 293 291 291 291 288 288 290 289 289 288 287 286 285 282 282 283 283 283 284 286 287 287 288 287 288 287 287 287 287 288 288 288 288 287 287 287
290 291 291 291 291 291 291 292 292 293 294 295 296 297 297 297 296 296 295 295 294 295 295 295 296 297 298 299 299 298 299 300 298 298 299 298 299 298 298 298 297 297 298 298 297 297 297 296 295 293 292 292 289 288 288 290 289 288 288 288 288 284 285 285 283 280 281 282 283 285 286 286 287 287 287 287 287 286 287 287 288 288 287 288 287
289 290 290 291 290 290 290 291 291 292 292 293 294 294 294 295 295 295 295 295 295 294 296 296 295 295 296 297 298 298 297 298 298 297 296 297 297 297 297 297 297 296 297 297 297 297 297 296 295 295 293 292 290 289 289 288 289 289 289 288 287 286 285 286 283 287 282 280 282 283 283 285 286 287 287 287 286 286 286 286 287 287 287 287 287
288 289 289 289 290 290 290 290 290 291 291 292 292 292 293 293 293 293 293 293 294 295 294 296 296 295 294 294 295 296 296 296 297 297 295 296 295 296 295 295 295 295 294 296 296 297 296 295 295 294 293 292 291 289 288 289 289 289 287 287 286 287 287 286 286 283 282 283 280 281 283 284 284 285 286 287 287 287 287 287 287 287 287 287 287
287 288 288 289 289 289 289 289 289 290 290 290 290 291 291 291 291 291 291 292 293 293 293 293 293 294 294 293 293 293 294 294 295 295 295 295 294 294 294 293 294 294 293 293 293 294 295 295 295 295 294 293 293 291 290 289 289 290 288 289 287 285 287 288 286 285 284 282 285 281 282 283 283 285 287 286 287 286 286 286 286 287 287 287 287
287 287 288 288 288 288 287 287 288 289 289 289 289 289 289 290 290 290 290 290 291 291 291 291 292 292 292 292 292 292 292 292 292 294 293 293 293 293 293 293 293 292 292 292 291 292 293 293 294 294 294 294 293 292 291 290 289 288 288 287 288 288 288 288 288 285 288 286 284 282 280 283 285 284 284 287 287 286 286 286 286 286 287 287 287
Wind_Speed
8 12 10 15 17 17 19 19 18 17 16 16 15 14 14 13 13 12 11 11 11 10 11 11 11 12 11 11 10 10 11 11 10 10 9 8 7 8 7 6 6 6 6 6 7 9 9 11 12 13 12 12 11 11 11 11 11 11 11 11 10 10 10 10 10 10 9 10 11 11 10 10 10 11 12 13 14 13 11 10 10 7 5 8 12
11 11 11 12 17 17 18 19 19 18 17 16 16 15 14 13 12 12 11 11 11 10 11 11 11 11 11 11 11 11 11 10 9 9 8 8 7 7 6 5 5 6 5 7 7 9 11 10 11 13 12 11 11 10 10 10 10 10 10 10 10 10 10 10 10 10 9 8 8 8 8 10 10 11 12 13 14 13 11 9 9 4 3 11 12
10 11 10 13 17 17 17 18 19 19 18 17 16 15 14 13 12 12 11 11 11 11 11 12 11 11 11 11 11 11 10 10 9 8 8 7 7 6 6 5 4 5 5 6 7 8 11 12 12 12 11 11 10 10 10 10 9 9 9 9 9 8 8 8 8 8 8 7 8 8 8 8 10 11 12 13 13 13 11 10 9 7 7 13 11
11 10 10 13 17 17 17 17 17 17 17 16 15 14 14 13 13 13 12 11 12 11 12 12 12 11 11 11 11 10 9 9 9 8 8 7 6 6 4 3 4 5 5 6 8 10 10 11 12 12 11 11 10 10 9 9 9 9 9 9 9 8 7 7 7 7 8 7 7 5 2 3 5 9 11 12 13 13 11 11 10 11 12 12 13
10 9 10 11 12 15 17 17 17 16 17 16 15 16 15 15 14 13 13 12 12 12 12 12 12 11 11 11 10 10 9 9 8 8 7 7 6 5 3 3 4 5 6 6 9 9 10 11 12 12 11 10 9 9 8 8 8 8 8 8 8 7 7 6 6 6 5 4 5 1 1 2 4 8 9 11 12 12 11 12 12 12 11 12 12
8 8 9 10 10 13 18 18 17 17 16 16 16 16 15 15 14 14 13 13 13 13 13 12 12 11 11 11 11 10 10 10 9 8 7 7 6 5 4 2 3 5 7 8 8 9 9 12 12 11 11 10 8 8 8 8 7 8 8 7 7 7 7 6 7 7 4 5 4 1 2 1 4 5 9 10 11 10 10 12 12 12 12 13 13
9 7 9 9 8 11 17 18 18 18 17 17 16 16 15 15 15 14 13 14 14 14 13 13 12 11 11 11 11 11 10 10 10 9 8 7 6 4 4 2 4 6 8 8 9 8 9 10 10 11 10 9 8 7 7 7 7 7 7 7 7 7 7 8 8 7 8 4 5 4 2 1 2 3 9 8 10 11 11 11 11 12 13 13 12
7 7 8 8 7 11 15 17 18 19 19 17 15 14 15 15 15 15 14 14 14 14 14 13 12 11 11 11 11 11 10 10 10 10 9 8 7 5 5 4 5 6 8 8 9 9 10 9 9 10 10 8 6 6 6 6 7 7 7 6 6 6 7 8 9 8 9 3 3 3 4 3 3 2 8 9 8 11 12 12 12 13 13 13 12
9 8 9 8 7 13 14 15 16 18 19 19 17 15 16 16 15 15 14 14 14 14 13 13 13 12 11 11 11 11 11 11 11 11 10 9 8 7 7 8 8 7 8 9 9 9 9 8 8 8 9 7 5 6 6 6 6 6 6 6 6 6 7 8 8 8 5 4 5 3 4 4 3 3 7 10 9 10 11 9 10 12 12 11 10
9 9 9 8 7 12 14 14 16 17 19 19 16 17 18 17 16 15 14 14 14 14 14 13 13 12 12 12 11 11 12 12 12 11 11 10 11 10 9 9 9 8 8 8 8 7 8 7 7 7 7 6 5 5 5 6 6 5 5 5 5 6 7 7 8 5 3 4 5 4 4 6 4 4 7 11 14 13 11 9 7 6 7 10 10
10 9 8 8 9 13 13 14 15 15 17 16 15 16 18 17 17 17 15 15 14 14 14 13 13 13 12 12 11 11 12 13 13 12 11 11 11 11 10 9 8 4 4 5 5 5 5 5 4 4 5 6 4 4 5 5 5 5 5 5 5 7 7 8 5 3 4 6 5 4 5 7 4 3 10 12 13 12 10 9 9 9 9 9 9
8 8 8 7 11 15 14 14 14 14 15 14 15 15 16 17 16 17 16 15 15 15 15 14 13 13 12 12 11 12 13 13 13 13 12 11 11 11 9 8 6 5 5 2 3 4 4 4 3 4 3 5 3 3 4 5 5 4 5 5 6 7 7 7 4 5 5 6 5 4 4 3 3 7 11 10 10 10 9 9 9 9 9 10 10
6 7 8 7 10 15 14 14 13 14 14 14 15 17 15 16 15 16 16 16 16 15 15 14 11 12 12 12 11 12 13 14 14 13 13 13 10 11 11 10 7 5 3 4 1 3 2 3 3 2 2 4 3 3 4 4 4 4 5 5 6 7 7 7 4 4 5 5 4 4 4 3 1 6 8 8 8 8 9 9 9 9 9 9 8
7 5 7 7 8 15 16 14 13 14 13 14 14 15 14 14 15 15 15 14 15 14 14 14 13 12 12 11 13 14 14 15 14 13 12 11 11 10 9 7 8 5 4 3 3 3 4 3 7 6 7 4 3 3 3 3 4 4 5 6 7 8 8 5 5 4 5 4 4 5 5 4 3 8 8 8 7 8 7 7 7 7 6 8 7
8 5 6 6 8 11 17 16 14 14 13 13 13 14 14 13 14 13 15 13 12 12 12 12 11 11 10 11 13 14 15 14 14 13 13 12 12 11 9 9 8 7 6 6 7 7 5 3 4 7 6 4 3 3 3 3 4 5 5 6 7 8 8 4 4 4 6 5 4 5 5 4 5 4 6 6 7 6 6 7 6 6 6 6 7
7 6 6 6 7 8 10 14 16 14 14 13 13 13 14 14 13 13 13 12 12 11 11 11 10 10 10 11 13 15 15 15 14 14 12 13 11 10 10 10 9 6 7 8 2 3 4 3 4 9 6 5 4 3 4 4 4 5 6 6 7 7 7 4 4 5 5 5 4 4 5 4 7 7 5 4 5 5 5 4 5 5 5 6 6
5 7 7 7 8 8 9 9 11 15 13 13 13 13 14 14 13 13 12 11 11 11 11 10 9 10 10 11 12 13 12 12 11 12 13 11 11 9 7 7 6 6 5 5 6 6 4 5 10 9 7 5 5 4 4 4 5 5 6 6 7 7 7 5 5 5 5 4 4 4 5 4 6 7 8 6 4 5 5 5 5 5 5 5 5
4 7 7 8 8 8 8 8 9 10 9 10 12 14 14 14 14 14 13 12 12 11 11 10 9 10 10 11 11 12 11 11 12 12 11 11 9 9 8 9 8 8 7 6 6 6 5 7 11 9 7 6 5 5 4 5 5 6 5 6 7 7 7 7 5 5 5 4 5 3 5 4 7 7 7 6 5 5 4 4 4 5 5 4 4
1 5 7 8 8 9 9 8 9 9 9 8 7 11 15 14 14 14 14 13 12 12 11 10 10 8 10 10 11 12 11 9 11 10 10 10 10 9 9 9 9 9 8 8 7 7 6 11 9 9 8 7 6 5 5 5 6 6 6 6 6 6 7 6 4 5 5 5 4 5 5 5 5 5 5 5 5 4 4 4 4 4 3 3 3
1 4 6 7 8 9 8 8 9 10 9 8 8 8 12 14 14 14 14 14 13 13 12 11 11 10 11 11 10 7 8 8 11 8 11 11 11 8 9 8 9 9 8 8 8 8 9 10 9 8 9 8 7 6 5 5 6 5 5 5 5 6 5 4 5 5 5 5 4 4 5 5 4 5 5 4 3 3 3 4 4 4 4 4 4
3 4 5 6 8 9 10 8 9 10 10 9 8 9 9 13 11 12 13 14 13 13 12 12 12 11 11 11 9 7 5 5 8 6 10 8 10 10 10 9 9 9 9 9 9 8 9 10 8 9 9 8 7 6 5 5 5 5 5 5 5 4 4 5 6 5 4 4 4 3 6 4 4 5 5 5 5 4 4 4 4 4 4 4 5
6 6 5 6 6 8 10 10 8 10 9 9 7 7 7 10 9 7 8 10 11 11 10 8 8 7 10 9 7 6 6 6 6 7 6 7 9 11 10 10 9 8 8 8 10 10 10 9 9 9 10 9 7 2 2 2 3 4 4 4 3 2 4 5 5 5 4 3 3 4 6 4 3 4 4 4 4 4 4 4 4 4 4 5 4
6 7 7 7 7 6 6 9 9 10 10 9 7 7 8 7 8 8 7 8 8 9 7 8 6 7 7 6 6 6 6 6 7 7 7 9 9 11 11 10 10 8 8 8 9 11 11 10 11 10 10 9 4 2 1 1 1 3 5 3 2 2 4 5 4 5 3 2 2 5 5 4 3 4 4 4 4 3 4 4 4 4 5 5 4
9 9 10 7 7 8 9 10 11 11 10 9 7 7 7 7 7 7 6 6 6 7 7 7 7 7 7 6 6 6 6 6 8 11 9 7 7 10 11 11 10 8 8 7 8 10 11 11 11 11 7 4 4 3 2 1 2 1 0 0 1 1 3 4 4 4 4 3 2 5 5 5 2 2 5 4 5 4 4 4 5 5 5 4 3
10 8 5 8 9 9 8 7 9 10 11 9 9 8 8 8 7 7 7 7 7 7 6 7 7 7 7 6 6 6 6 6 6 6 6 6 6 5 6 6 6 5 7 4 5 5 7 5 5 7 4 5 4 3 2 2 2 1 1 2 2 3 3 4 4 4 3 2 2 5 5 5 3 1 5 5 5 5 5 5 5 5 4 4 4
4 5 9 8 10 10 10 9 7 8 11 10 11 9 9 9 9 9 8 8 8 8 7 7 7 7 7 7 7 7 7 6 6 6 6 7 7 6 6 6 6 5 5 6 5 5 5 5 6 6 4 4 4 4 4 4 3 2 3 4 3 3 4 4 4 4 4 3 2 4 5 5 3 2 2 5 6 6 6 5 6 5 4 4 3
7 9 8 9 9 9 10 8 8 7 10 9 9 8 9 9 9 9 9 8 8 8 8 7 7 7 7 7 8 7 7 6 7 7 7 7 7 6 6 6 6 6 6 7 6 6 6 6 6 6 4 4 4 4 4 4 3 4 4 3 3 3 3 4 4 4 3 3 3 4 4 4 4 1 2 4 5 6 5 5 4 5 5 5 4
5 8 8 9 9 12 11 9 9 8 7 8 9 9 8 8 9 9 10 9 9 9 8 8 8 7 7 7 8 7 7 7 7 7 7 6 7 6 6 6 6 6 6 7 7 6 7 6 6 4 4 4 3 4 4 4 4 4 4 4 3 3 4 4 5 4 3 3 2 3 3 3 4 3 2 4 5 6 6 4 5 6 7 5 5
7 8 8 7 10 11 10 11 10 11 9 8 9 8 8 8 8 9 10 10 9 9 9 8 8 7 7 8 7 8 7 7 8 8 7 7 7 7 7 7 6 6 6 6 7 7 7 7 7 6 5 4 4 4 4 4 4 4 5 4 4 4 3 4 4 4 3 2 2 2 3 3 3 2 1 3 5 5 6 7 6 5 5 6 4
11 9 6 8 7 8 10 12 11 11 10 8 8 7 8 9 8 9 9 9 9 9 8 8 8 8 8 8 9 8 8 7 7 7 8 7 7 7 7 7 7 7 7 7 7 7 7 6 6 6 6 5 6 5 5 5 4 4 5 4 4 5 4 4 4 5 3 2 2 2 3 3 4 3 2 1 4 6 5 7 6 5 4 6 7
5 4 5 7 7 7 9 10 10 9 7 8 8 8 7 8 7 6 7 9 8 8 8 8 8 8 8 8 8 8 8 8 8 8 7 7 7 7 7 7 7 7 7 7 6 7 7 7 7 7 7 7 7 6 6 5 4 4 4 4 5 4 4 3 3 4 4 3 2 2 2 5 5 6 5 4 3 3 4 5 6 6 7 6 7
6 6 3 2 3 7 9 9 9 8 8 8 7 7 7 7 5 6 6 6 6 7 7 7 8 8 8 9 8 8 8 8 9 8 8 8 8 8 7 7 8 7 7 7 7 6 7 6 6 6 6 6 6 5 5 6 5 6 4 4 4 5 5 4 4 4 4 4 3 2 2 3 6 6 7 7 6 6 5 4 3 6 5 6 8
7 6 6 2 5 6 7 8 8 7 8 8 8 6 5 4 5 6 5 5 6 6 6 6 7 7 8 9 9 8 7 8 8 9 9 8 8 8 8 8 8 7 7 8 7 6 6 7 7 6 6 5 5 5 4 5 6 6 6 4 5 4 4 4 4 5 5 4 5 4 3 3 3 6 7 7 7 7 7 6 5 3 4 2 6
8 8 10 7 4 3 5 5 6 7 8 7 5 6 5 5 4 5 5 5 6 6 6 5 6 6 6 7 8 8 8 7 8 7 8 8 7 8 8 7 7 7 7 7 8 7 7 7 7 7 6 7 7 6 6 6 5 5 5 4 5 6 6 5 5 5 4 5 5 4 4 3 3 3 3 6 7 6 7 7 7 6 3 3 5
10 11 11 10 4 3 3 4 5 5 5 5 6 6 5 5 6 5 5 5 5 6 5 5 5 6 6 7 7 7 7 7 7 8 7 7 7 7 7 8 7 6 7 7 8 7 7 8 7 8 6 6 6 6 7 7 7 7 7 6 6 6 5 6 5 4 4 4 6 5 5 5 4 3 3 3 4 5 6 7 7 7 7 5 3
12 10 11 11 10 6 1 3 3 4 5 5 5 5 5 5 5 5 5 4 5 5 5 5 5 5 5 6 6 6 6 6 6 7 8 7 7 7 7 6 6 7 7 7 7 8 7 7 7 8 8 7 7 7 5 7 6 6 5 6 6 5 6 5 5 4 4 4 5 5 5 5 5 5 4 4 3 3 5 6 7 7 6 5 4
10 12 12 11 12 9 8 5 3 2 2 2 2 2 3 4 4 4 4 5 6 5 5 4 4 5 5 6 5 6 6 6 6 6 7 7 7 7 6 6 6 7 7 7 7 7 8 8 7 7 8 7 7 6 5 6 6 5 5 4 5 5 5 6 5 5 3 4 4 3 4 5 4 5 5 5 4 4 4 5 5 5 5 4 4
11 12 11 11 8 8 7 7 7 5 4 3 3 3 3 3 3 3 3 5 4 5 5 5 5 5 5 6 5 6 6 5 5 5 6 6 6 6 6 6 6 6 7 7 7 5 6 7 8 6 7 7 7 8 8 6 4 4 3 3 3 3 4 5 4 4 4 4 4 4 4 5 4 5 5 5 4 5 4 5 6 4 3 3 3
10 11 12 11 11 11 9 10 9 8 6 6 4 5 5 5 4 3 4 3 3 4 5 5 6 6 6 6 6 6 6 6 6 6 6 6 6 6 6 6 6 7 7 7 6 5 5 6 8 7 4 6 8 7 7 6 4 4 3 1 1 1 2 3 3 4 5 4 4 4 2 5 3 4 4 4 4 4 4 4 4 3 2 2 3
11 11 12 13 13 12 10 11 11 8 5 6 6 6 6 6 5 4 5 5 3 4 3 3 3 4 4 5 5 6 6 6 6 6 6 6 6 6 7 6 6 7 7 7 6 6 8 7 7 9 8 4 3 6 6 7 4 4 2 1 1 0 1 1 4 4 4 4 4 3 5 3 3 4 4 4 3 4 4 4 4 5 3 3 3
14 13 13 14 13 11 12 12 9 11 9 7 6 5 5 3 3 4 1 3 2 3 4 3 4 3 4 3 4 5 5 5 5 6 7 7 7 6 7 6 6 7 8 9 8 8 7 7 6 4 8 6 4 4 6 8 8 2 2 1 1 1 1 0 3 4 4 4 4 6 5 4 4 4 4 3 4 4 4 4 3 3 4 4 4
14 14 13 11 11 12 12 10 10 10 10 8 7 7 4 2 2 2 1 3 5 2 1 2 3 4 3 3 3 3 4 4 5 5 5 7 6 6 6 7 7 7 7 6 6 6 5 5 5 4 4 9 7 8 8 10 3 8 6 3 2 3 2 3 4 5 4 4 6 6 4 5 6 5 3 3 4 4 4 4 4 3 4 4 4
11 12 11 13 13 11 10 8 9 9 8 9 8 5 5 6 5 4 3 3 3 3 4 3 4 6 4 3 3 3 3 3 3 3 4 4 5 6 6 6 7 7 6 6 6 7 7 8 8 9 6 4 3 5 9 11 8 5 3 5 3 4 3 3 5 7 5 5 5 6 6 5 7 5 5 5 5 5 4 4 4 4 4 4 4
11 12 13 13 10 11 10 10 9 9 9 9 7 5 3 4 4 5 5 6 3 3 5 6 6 6 5 3 2 2 2 2 2 3 3 4 4 6 5 6 7 7 8 8 7 8 7 6 7 8 7 6 5 8 9 10 6 11 4 7 4 4 3 9 11 4 7 6 6 7 5 6 6 5 5 6 6 6 5 4 4 5 5 4 4
12 11 10 9 8 10 10 9 9 9 8 10 10 7 8 7 6 6 5 4 4 7 6 5 5 3 2 3 2 2 1 1 1 2 2 4 3 3 4 4 5 5 6 7 8 9 10 10 11 9 9 10 9 5 8 7 8 12 8 6 2 1 7 3 3 5 3 6 7 7 6 6 7 7 7 7 6 7 6 5 5 4 5 5 4
12 9 7 8 9 10 10 10 9 9 10 10 10 8 8 7 7 7 7 6 6 7 6 3 2 1 1 1 1 1 2 0 0 1 2 2 3 3 3 3 4 4 5 6 7 6 7 8 8 9 10 9 9 6 6 8 8 8 6 4 6 8 5 4 3 5 0 3 4 5 7 7 6 8 7 7 8 7 6 7 6 6 6 5 5
10 8 9 10 12 11 10 10 9 9 9 9 11 9 9 8 7 6 6 6 5 4 4 3 2 2 2 1 1 2 1 0 1 1 1 2 2 2 2 3 3 4 5 5 6 7 7 8 7 8 9 8 5 8 9 9 6 8 8 8 1 0 5 7 7 3 1 2 4 6 6 5 6 7 8 8 8 7 7 7 7 7 6 6 5
8 8 10 11 13 13 12 12 10 10 10 9 10 9 8 7 8 7 7 7 5 4 6 4 4 2 1 0 0 1 1 0 1 1 1 2 2 3 2 2 3 3 4 5 6 6 5 5 7 8 8 8 9 10 8 7 12 10 9 10 7 1 1 1 3 10 5 4 5 3 3 7 6 7 8 8 9 9 9 8 8 8 7 7 7
10 10 9 9 10 11 12 12 13 12 11 12 11 11 9 7 7 6 7 5 5 5 4 6 7 7 4 4 1 1 2 1 1 1 1 1 2 3 3 3 3 3 3 4 5 5 7 7 7 7 8 7 8 7 6 9 9 9 5 9 6 7 4 2 0 2 5 5 4 7 7 2 3 7 9 9 8 9 9 9 8 9 8 8 8
8 8 8 9 10 11 13 13 13 11 11 13 12 12 11 10 9 8 8 7 7 7 6 7 6 6 7 7 7 6 3 3 3 2 2 2 2 2 3 3 4 4 3 4 4 5 5 6 7 8 8 10 8 9 10 7 8 8 8 6 9 7 5 4 3 3 2 3 7 7 8 11 10 11 10 9 12 9 8 7 8 8 8 8 8
6 7 10 11 11 12 11 11 11 10 11 12 12 13 11 10 9 9 9 8 8 7 8 8 8 8 7 7 6 6 6 6 6 4 3 3 3 2 3 4 3 3 3 3 4 5 5 6 6 6 7 9 8 9 9 8 7 8 8 7 9 9 12 10 9 7 7 6 2 4 3 9 12 8 7 12 9 8 8 8 9 9 9 8 7
Wind_Direction
192 165 173 173 171 169 167 167 165 163 162 162 161 160 158 158 157 154 153 152 149 149 145 142 143 139 136 135 133 130 126 123 119 116 112 112 112 110 108 108 109 105 90 97 106 108 108 99 95 95 87 81 78 76 77 76 76 74 72 68 60 56 51 44 41 45 45 68 73 74 75 77 77 78 76 79 83 85 81 75 74 66 52 67 73
172 165 167 172 173 169 169 168 168 166 165 165 164 164 163 162 161 157 157 158 155 154 149 147 143 141 140 136 134 134 131 127 123 122 118 115 112 110 111 115 117 108 114 113 111 113 108 98 91 88 87 83 79 77 75 74 72 70 68 65 58 50 46 42 38 34 28 46 67 67 67 75 76 77 77 80 82 78 70 73 78 70 72 75 68
150 160 165 171 173 170 169 170 170 168 168 167 167 167 164 164 163 159 160 161 156 156 154 151 147 144 141 137 135 134 132 129 127 126 123 120 117 115 108 100 85 98 112 118 115 108 108 99 90 86 85 84 80 75 73 74 73 69 67 63 61 53 47 42 36 29 30 28 54 46 61 68 77 81 82 81 82 79 70 61 63 77 72 71 69
149 163 164 169 173 170 168 169 173 170 168 170 168 167 163 165 164 164 162 161 159 160 159 155 152 149 144 141 139 138 135 133 133 132 131 126 119 112 100 89 84 80 86 108 117 121 111 102 94 88 84 81 80 77 72 70 70 70 66 62 54 48 39 41 31 23 20 9 354 0 5 66 66 81 84 86 84 82 79 70 62 66 68 76 73
151 159 164 168 172 171 170 168 171 171 170 171 169 167 167 166 165 165 167 166 162 164 163 160 158 155 150 150 147 144 145 143 143 141 139 134 125 117 98 95 87 100 110 120 120 114 113 102 92 89 83 79 73 74 72 68 66 65 63 59 56 46 32 22 21 25 13 331 305 296 286 101 89 83 86 89 88 89 90 85 77 69 62 60 63
151 158 163 168 173 173 172 168 170 170 171 173 169 170 168 168 167 166 167 168 169 167 167 166 164 161 158 157 156 156 155 154 151 148 142 142 138 136 115 90 117 114 118 121 119 119 108 96 93 87 81 78 73 69 67 63 60 58 56 51 45 39 25 11 13 8 350 340 332 169 162 152 104 96 93 96 92 89 87 86 84 82 72 63 58
149 158 162 169 174 177 174 168 169 171 170 176 171 172 170 170 169 167 169 171 172 171 170 171 169 166 166 166 164 162 161 159 152 146 145 145 143 148 120 128 129 126 122 124 119 113 103 99 96 91 80 71 68 64 62 59 56 51 48 45 39 29 17 7 6 352 352 9 37 60 75 49 76 98 103 103 103 99 92 88 85 80 74 69 62
142 156 167 170 174 181 176 171 169 171 172 173 174 172 171 171 171 170 171 173 175 173 173 174 172 173 173 174 171 169 167 163 153 148 147 144 141 132 128 114 128 118 120 117 112 112 98 93 94 93 85 70 60 58 55 52 48 46 43 38 34 26 14 7 3 351 351 13 65 74 98 87 71 73 105 98 90 84 85 86 86 82 77 70 64
153 159 164 170 176 181 179 173 172 174 173 174 172 170 172 173 173 173 174 177 177 178 178 176 178 180 180 182 180 176 166 160 155 154 151 147 132 128 124 120 114 123 121 118 116 103 91 87 85 87 88 74 59 53 48 46 44 41 37 32 29 25 15 10 359 353 354 19 53 74 100 97 89 72 102 98 96 92 88 76 74 79 79 76 70
155 160 166 165 176 182 180 177 176 177 177 176 172 170 173 173 174 175 177 182 183 182 182 183 184 185 189 189 184 174 167 163 162 157 151 147 135 131 128 127 134 150 139 125 116 109 99 96 85 80 91 89 58 56 53 49 48 43 38 32 26 23 18 7 360 357 6 36 47 84 90 94 79 77 90 98 97 88 84 88 90 90 90 82 77
154 160 165 166 172 179 184 180 177 180 179 178 175 174 175 175 175 178 178 184 186 186 186 188 189 189 192 194 188 176 169 167 165 155 152 150 144 137 138 135 134 120 148 127 126 114 111 103 97 88 83 84 70 59 53 51 47 45 44 37 30 28 18 4 13 18 31 38 43 40 82 88 98 118 107 101 92 86 78 75 76 80 83 82 77
153 160 165 164 170 176 184 184 179 182 180 178 177 179 179 177 179 180 180 183 186 189 190 191 193 194 196 195 189 177 173 174 166 160 154 156 149 139 144 145 127 113 113 121 144 150 146 125 105 99 96 89 65 54 53 51 49 50 48 43 36 28 12 12 41 38 44 50 54 53 42 45 97 109 102 93 92 90 86 83 80 79 79 75 72
174 153 168 161 166 177 183 184 182 184 182 178 181 182 184 182 183 186 186 185 186 189 192 193 195 197 199 194 183 179 175 178 167 166 159 154 155 147 145 154 155 152 161 134 55 196 171 182 150 139 116 87 85 65 55 57 62 59 57 48 38 24 9 21 41 42 46 53 60 46 37 25 354 123 103 98 90 86 81 79 75 70 65 62 62
182 150 164 161 167 176 179 183 183 184 186 180 183 186 186 186 188 190 189 191 191 190 193 193 195 202 200 191 188 180 179 181 170 168 172 168 161 160 161 165 166 174 180 210 193 272 238 193 147 133 112 115 91 72 70 71 69 67 61 51 39 23 15 20 31 43 45 42 46 47 34 14 28 94 101 92 86 76 75 71 64 56 56 57 54
172 154 153 161 166 177 179 180 182 185 187 182 184 186 188 189 189 192 195 193 194 193 197 193 194 199 196 188 188 183 185 184 177 170 162 166 166 166 171 178 168 178 197 196 215 219 212 227 118 100 123 115 98 86 86 79 69 63 59 52 36 24 20 23 27 47 51 58 45 44 31 16 38 89 110 98 80 72 71 65 60 53 53 54 51
165 147 140 156 162 170 182 182 180 183 188 184 184 186 190 190 189 193 197 194 195 196 199 197 195 195 192 185 188 186 190 184 180 171 168 170 175 181 186 188 181 171 204 212 196 186 191 143 133 113 115 118 115 110 97 85 75 63 56 47 34 29 36 64 55 53 59 65 52 44 27 10 33 72 86 99 84 74 55 62 59 55 54 50 47
145 140 140 153 160 166 177 185 185 182 185 187 186 187 189 190 188 191 194 194 196 197 201 202 199 194 191 184 185 186 190 181 175 173 173 174 185 181 169 157 166 177 185 183 176 193 176 172 117 122 128 131 135 128 107 91 83 73 68 54 38 28 43 61 61 52 59 58 61 41 24 10 43 71 68 75 78 74 65 58 55 56 58 54 46
131 143 152 156 161 169 174 179 185 187 185 187 191 190 189 190 189 188 190 194 195 197 199 201 201 196 188 183 182 187 191 184 172 175 176 182 174 160 160 165 168 175 178 175 179 172 177 123 124 130 138 143 141 130 115 102 92 87 78 57 36 33 49 54 56 67 68 58 45 39 21 9 57 66 69 69 68 64 65 58 63 61 58 55 43
144 155 152 158 169 170 175 179 184 187 189 187 188 195 191 192 190 190 189 191 193 195 198 198 193 192 178 185 189 191 188 180 174 172 171 167 152 157 161 166 168 169 175 177 178 172 145 126 134 139 146 148 145 137 126 111 102 100 81 53 38 41 47 52 67 75 72 60 45 32 4 25 75 74 77 70 69 76 70 73 76 71 66 53 71
219 186 163 169 170 175 177 183 186 190 190 191 191 191 196 193 192 191 191 191 191 192 193 190 185 185 182 185 190 178 185 179 168 161 158 156 152 154 159 161 165 169 177 181 184 179 162 140 146 152 152 153 151 141 134 125 116 107 81 58 50 55 52 63 79 78 76 66 56 27 8 38 86 93 86 80 79 82 87 93 94 85 76 95 100
241 230 199 183 176 179 183 183 192 192 192 192 194 195 196 193 193 193 192 192 192 189 189 185 183 186 184 186 169 164 170 167 162 159 157 155 155 153 154 159 167 171 177 185 187 178 172 153 162 163 156 155 139 136 138 129 121 105 76 57 52 54 65 76 80 85 75 68 53 18 28 56 84 98 92 91 90 93 101 106 99 97 101 89 94
216 225 234 212 187 187 187 188 190 196 193 195 195 195 193 192 192 193 194 193 191 187 186 185 184 181 176 169 167 162 160 159 161 156 157 157 157 155 155 159 161 158 164 180 184 189 182 175 174 174 159 136 114 84 77 100 110 96 56 42 44 58 67 88 91 88 85 69 55 24 40 67 90 108 94 95 98 100 108 101 104 100 93 86 77
231 230 230 218 211 193 183 189 192 192 193 196 197 195 190 188 192 190 190 191 189 186 185 182 179 177 170 171 165 162 160 161 161 164 162 164 161 161 161 160 157 150 162 177 185 187 180 178 180 176 151 132 118 138 151 142 104 69 46 33 74 77 73 90 98 98 99 93 43 35 46 69 93 110 121 107 108 118 114 109 101 119 117 112 106
215 208 211 211 205 203 197 189 188 186 187 193 194 191 189 184 190 189 186 186 187 188 185 181 179 178 174 171 167 165 163 162 168 164 156 158 164 163 165 162 157 147 163 166 178 179 170 181 182 176 139 128 146 167 171 154 145 53 31 15 162 77 93 106 106 108 102 82 49 47 40 54 69 153 138 145 133 137 135 134 134 126 118 106 105
210 207 209 211 207 206 204 199 189 186 185 188 189 189 186 181 189 188 186 185 186 186 187 183 182 180 176 172 172 165 165 164 162 162 160 156 157 163 162 162 154 152 154 154 150 153 148 152 156 131 146 150 153 185 166 166 203 181 232 221 172 123 113 110 113 106 105 92 60 54 35 32 46 218 169 144 151 144 149 150 135 124 116 121 110
195 188 208 209 209 206 201 202 187 191 190 189 191 186 176 184 187 189 186 189 189 188 186 184 184 182 176 175 168 168 167 167 167 166 163 163 162 165 164 157 155 159 150 150 143 135 128 127 135 148 171 171 178 187 196 173 195 208 211 207 147 131 125 116 120 119 126 109 70 57 34 18 23 12 166 165 144 158 160 144 148 125 118 125 111
195 210 200 205 203 204 205 197 200 190 197 193 191 185 188 185 185 183 185 191 187 187 189 188 188 180 176 174 171 178 172 165 169 169 170 168 169 167 163 163 164 162 163 150 151 146 141 145 150 164 184 197 200 197 191 188 163 169 182 163 144 140 126 115 124 129 136 118 87 65 39 20 10 13 160 157 161 164 173 154 133 159 149 126 118
178 213 205 198 192 203 200 192 201 199 196 195 192 193 192 183 184 182 189 185 183 191 190 192 185 180 177 179 178 175 173 168 171 172 174 167 171 169 162 165 164 168 165 160 153 153 152 153 158 169 187 212 206 177 151 149 160 151 134 126 131 128 129 125 130 135 134 127 104 68 54 28 13 12 190 172 166 186 161 196 167 159 169 140 116
206 215 206 191 203 200 193 196 198 201 199 188 194 197 194 190 184 186 191 184 189 192 190 186 187 182 179 177 178 180 179 172 173 178 160 172 166 167 167 170 166 169 165 174 163 162 162 163 166 179 187 196 189 165 139 133 136 138 137 134 137 133 134 122 122 132 132 128 109 72 61 36 27 63 141 200 179 187 185 182 205 179 149 152 129
212 206 186 207 200 194 192 197 197 201 199 188 198 188 193 194 192 192 191 185 193 186 182 188 191 183 185 181 183 180 180 175 175 171 167 170 168 168 170 171 173 170 171 179 179 165 165 165 170 179 182 185 178 174 148 150 145 151 146 151 152 152 155 146 134 140 148 132 117 71 58 41 36 76 106 172 189 183 203 194 205 160 182 154 177
205 203 204 210 199 184 198 199 199 198 190 197 199 198 186 199 194 189 186 191 187 178 185 188 189 192 189 184 182 183 177 174 172 172 175 166 168 170 179 171 173 182 181 177 173 174 164 173 176 177 179 179 179 169 158 155 161 166 171 155 171 146 154 154 138 140 140 152 136 102 57 56 46 42 69 103 127 172 196 201 196 179 185 199 143
343 305 276 237 179 195 199 197 196 192 189 201 198 201 196 199 193 186 190 188 180 185 186 185 189 192 186 186 183 183 178 177 170 172 173 170 170 174 175 176 187 182 185 174 170 174 171 171 171 174 174 168 169 167 163 150 162 173 167 163 163 151 155 156 135 138 147 149 149 129 95 65 59 52 47 66 93 91 90 75 178 171 191 221 180
355 340 301 233 202 206 195 199 193 184 190 196 197 202 193 188 189 195 189 177 184 180 183 187 188 187 184 185 184 180 179 173 176 172 173 172 170 172 178 187 184 177 183 178 165 164 162 163 174 165 161 160 160 176 161 154 154 172 164 172 157 156 163 144 146 142 151 161 159 149 130 107 85 62 57 43 59 93 90 83 87 138 181 222 158
356 347 356 335 268 225 195 184 183 181 191 194 186 187 190 187 182 183 180 176 184 185 187 184 184 183 182 186 181 180 179 174 166 173 169 172 174 177 178 186 183 177 176 169 172 171 170 167 171 162 172 166 177 177 163 165 175 166 171 176 160 168 161 154 163 168 162 158 165 161 158 143 121 103 75 53 45 66 93 92 86 78 104 162 173
7 3 354 328 313 228 164 169 179 183 178 181 179 188 185 177 170 171 177 182 182 185 183 173 173 182 177 183 179 178 180 169 168 164 174 171 173 178 182 186 175 170 173 180 169 173 165 173 162 169 168 172 176 179 175 173 168 176 182 175 174 172 157 163 166 171 172 166 160 174 169 162 155 135 118 99 64 55 73 90 91 85 79 83 140
8 354 348 356 8 354 106 120 146 155 180 181 180 176 177 174 167 166 167 173 171 176 177 175 170 165 164 172 178 172 172 168 165 163 166 176 175 180 185 168 172 167 174 173 168 173 174 167 178 161 164 187 175 189 176 168 172 176 183 176 180 170 161 159 168 174 189 160 167 171 174 175 171 157 150 134 123 95 85 88 93 88 83 83 100
8 3 1 358 10 13 16 40 69 103 144 143 112 127 146 152 158 161 162 157 161 164 169 162 153 151 150 159 166 165 168 161 163 166 163 173 175 176 174 172 165 166 168 175 180 176 167 171 177 181 170 174 182 174 178 170 175 182 180 174 182 167 163 166 171 177 167 165 187 162 158 187 180 165 158 156 150 136 110 104 96 84 69 90 101
14 9 4 7 8 18 25 42 36 39 49 85 98 91 94 103 106 120 123 143 151 151 151 152 157 154 149 155 160 161 163 155 156 161 164 169 170 172 170 171 166 166 170 173 187 171 173 165 174 189 176 160 182 176 181 175 162 164 169 177 190 163 173 174 178 181 170 190 202 182 183 177 165 172 168 165 165 157 143 130 121 102 91 101 127
15 10 11 11 18 17 19 19 23 26 33 38 47 55 54 55 50 59 67 80 109 124 139 141 158 152 159 162 162 159 160 154 153 156 156 159 164 170 173 176 170 170 170 177 174 173 174 182 176 185 190 186 179 186 168 148 131 121 129 173 152 156 200 188 176 179 191 193 196 201 176 188 162 169 172 174 172 166 160 153 138 139 142 142 156
17 14 15 19 18 18 19 23 11 7 30 41 38 44 48 37 43 21 42 24 47 62 53 107 128 140 148 161 165 166 165 161 154 155 158 161 167 178 181 174 175 168 174 177 185 180 186 186 195 179 182 190 174 161 137 129 97 95 94 44 41 78 154 184 180 193 201 195 203 170 186 212 180 180 175 179 178 179 174 173 170 172 173 180 186
20 15 19 19 19 21 27 23 9 19 20 19 34 49 44 27 29 36 36 340 15 20 44 37 64 92 125 138 160 162 165 161 156 154 171 174 182 177 178 181 175 179 183 193 186 191 192 185 181 188 172 175 190 171 165 138 130 78 13 25 328 341 337 339 219 220 221 212 199 182 195 183 203 190 190 173 179 187 187 184 187 183 187 189 200
13 16 18 14 17 21 27 18 18 21 23 17 21 39 27 65 103 356 12 12 8 17 1 4 54 71 91 122 135 150 161 174 174 174 174 178 178 176 181 183 174 188 196 188 184 187 179 177 160 185 213 184 194 180 175 130 175 176 160 216 327 321 294 301 267 252 228 211 200 192 180 186 194 204 189 172 187 193 191 187 188 192 197 197 211
19 20 14 19 18 17 16 17 20 23 20 19 24 23 37 35 56 29 59 71 49 56 57 25 34 49 35 55 91 121 145 166 166 163 167 180 182 177 188 182 185 182 179 184 185 191 191 188 180 185 198 237 201 190 184 192 165 133 113 97 228 215 302 302 270 239 226 214 198 196 192 189 198 193 187 182 197 207 209 191 190 198 203 206 212
25 20 17 17 15 11 10 14 17 20 20 14 19 15 60 90 61 65 50 74 65 10 32 23 32 46 40 37 43 91 131 155 165 177 190 188 190 194 190 185 193 186 186 187 187 198 193 192 191 201 176 188 202 210 209 198 142 140 183 202 199 143 274 237 220 239 201 212 193 207 195 203 195 201 183 194 200 203 209 201 193 197 202 207 207
24 19 13 15 18 10 6 10 15 17 18 15 14 16 23 24 20 26 32 14 8 19 15 0 14 34 47 49 48 76 87 143 177 200 201 212 203 201 185 193 190 194 191 196 196 200 197 196 194 195 190 193 209 209 221 220 203 200 154 108 51 265 220 236 160 266 191 210 223 207 207 200 196 196 195 207 198 201 198 203 206 202 204 205 203
23 12 7 18 25 21 12 9 14 16 18 18 15 23 36 36 35 42 31 25 18 10 355 319 333 344 291 301 2 50 102 76 293 226 238 233 233 222 200 180 201 197 200 207 205 204 206 203 202 198 204 212 201 192 213 234 232 237 233 230 150 180 180 221 129 259 346 248 232 217 212 206 197 196 203 202 201 205 199 202 199 205 206 204 200
16 7 14 17 22 27 20 14 12 12 16 21 23 26 32 33 48 59 66 62 51 4 330 325 248 277 346 10 333 339 14 165 316 308 273 259 260 258 220 201 201 206 210 214 214 210 209 209 202 205 209 208 187 203 206 211 236 260 256 256 318 118 156 129 211 79 280 287 229 223 232 221 209 203 205 207 202 197 207 199 199 199 205 206 201
3 13 21 20 21 21 21 16 12 11 15 18 29 30 38 30 34 35 43 38 41 21 5 0 359 2 57 335 351 304 308 273 253 311 308 290 277 281 265 235 208 219 204 215 221 220 219 219 213 214 211 208 204 209 207 202 200 224 224 246 254 289 209 42 147 179 168 169 243 261 284 229 223 227 216 208 202 201 198 202 198 197 200 207 201
14 17 18 20 24 24 24 20 18 12 9 17 23 27 32 30 35 31 35 20 24 22 11 27 20 4 22 348 25 307 297 303 261 249 294 293 278 263 276 277 263 248 210 228 233 227 221 218 214 214 214 218 213 216 202 212 212 224 202 243 253 247 264 255 96 120 162 186 245 194 215 219 247 246 232 216 210 205 200 197 198 196 197 204 202
13 14 19 22 27 29 26 22 17 13 9 13 18 25 25 24 27 22 29 14 12 9 31 25 23 13 20 4 344 340 318 285 273 263 261 262 248 249 256 257 260 263 245 231 242 243 239 233 225 221 218 220 216 214 218 215 216 222 213 215 220 232 254 266 260 204 295 205 213 196 198 185 204 233 215 213 214 206 198 193 196 201 204 205 206
17 24 26 26 26 29 26 26 15 12 13 14 17 21 22 23 22 15 18 16 10 22 22 19 13 18 15 356 2 350 7 346 324 299 272 261 248 228 224 244 252 262 268 261 241 236 244 241 237 232 228 225 222 222 226 226 218 222 224 214 223 211 215 214 213 209 204 212 212 229 202 205 205 227 229 213 207 203 197 194 197 202 202 204 206